This is the latest recevied weather packets stored in our database for station/object W4SNA-4. If no packets are shown the sender has not sent any weather packets the latest 10 day(s).
| Time | Temp. | Humidity | Pressure | Rain* | Wind** | Luminosity | Snow |
|---|---|---|---|---|---|---|---|
| 1788029536 | 27.78° C | 77% | 1017.5 hPa | 0 mm | - | - | - |
| 1788029112 | 27.78° C | 77% | 1017.5 hPa | 0 mm | - | - | - |
| 1788028812 | 27.78° C | 79% | 1017.9 hPa | 0 mm | - | - | - |
| 1788028512 | 27.78° C | 78% | 1017.9 hPa | 0 mm | - | - | - |
| 1788028212 | 27.78° C | 80% | 1017.9 hPa | 0 mm | - | - | - |
| 1788027913 | 27.78° C | 78% | 1018 hPa | 0 mm | - | - | - |
| 1788027612 | 27.78° C | 80% | 1018 hPa | 0 mm | - | - | - |
| 1788027311 | 27.78° C | 79% | 1018 hPa | 0 mm | - | - | - |
| 1788027012 | 27.78° C | 80% | 1018.2 hPa | 0 mm | - | - | - |
| 1788026712 | 27.78° C | 76% | 1018.2 hPa | 0 mm | - | - | - |
| 1788026412 | 27.78° C | 78% | 1018.2 hPa | 0 mm | - | - | - |
| 1788026112 | 27.78° C | 81% | 1018.2 hPa | 0 mm | - | - | - |
| 1788025814 | 27.78° C | 81% | 1018.2 hPa | 0 mm | - | - | - |
| 1788025512 | 27.78° C | 79% | 1018.2 hPa | 0 mm | - | - | - |
| 1788025212 | 27.78° C | 81% | 1018.3 hPa | 0 mm | - | - | - |
| 1788024912 | 27.78° C | 80% | 1018.3 hPa | 0 mm | - | - | - |
| 1788024612 | 27.22° C | 80% | 1018.3 hPa | 0 mm | - | - | - |
| 1788024312 | 27.22° C | 81% | 1018.3 hPa | 0 mm | - | - | - |
| 1788024012 | 27.22° C | 81% | 1018.3 hPa | 0 mm | - | - | - |
| 1788023712 | 27.78° C | 81% | 1018.3 hPa | 0 mm | - | - | - |
| 1788023412 | 27.78° C | 81% | 1018.2 hPa | 0 mm | - | - | - |
| 1788023112 | 27.78° C | 81% | 1018.2 hPa | 0 mm | - | - | - |
| 1788022812 | 27.78° C | 82% | 1018.2 hPa | 0 mm | - | - | - |
| 1788022512 | 27.22° C | 83% | 1018.2 hPa | 0 mm | - | - | - |
| 1788022115 | 27.22° C | 84% | 1018.2 hPa | 0 mm | - | - | - |
* Rain latest hour (hover to see other rain measurements)
** Current wind speed in m/s (hover to see current wind gust speed)